[[{"header":{"parameterUnit":"m.s-1","parameterCategory":1,"la1":30.2991,"la2":30.254,"lo1":-89.0895,"lo2":-89.0444,"dy":0.0017,"dx":0.0017,"nx":28,"ny":28,"refTime":"2024-06-10T21:00:00:Z","depth":0,"parameterNumber":2,"parameterNumberName":"U-component_of_WINDS"},"data":[0,0,0,0,0,0,0,0,0,0,0,0,0,0,0,0,0,0,0,0,0,0,0,0,0,0,0,0,0,0,0,0,0,0,0,0,0,0,0,0,0,0,0,0,0,0,0,0,0,0,0,0,0,0,0,0,0,0,-1.7162,-1.7161,0,-1.7117,-1.7116,-1.7116,-1.7036,-1.7035,-1.7033,-1.7032,-1.6986,-1.6986,-1.6986,0,0,0,0,0,0,0,0,0,0,0,0,0,-1.7181,-1.7181,-1.7162,-1.7161,-1.7161,-1.7117,-1.7116,-1.7116,-1.7037,-1.7035,-1.7033,-1.7031,-1.6986,-1.6986,-1.6986,0,0,0,0,0,0,0,0,0,0,0,0,0,-1.7158,-1.7181,-1.7162,-1.7116,-1.7112,-1.7117,-1.7116,-1.7116,-1.7037,-1.7035,-1.7033,-1.7031,-1.6986,-1.6986,-1.6986,-1.7033,0,0,-1.6987,-1.6987,0,0,0,0,0,0,0,0,-1.716,-1.7157,-1.7123,-1.7119,-1.7114,-1.708,-1.7106,-1.7088,-1.7038,-1.7065,-1.7032,-1.7029,-1.7019,-1.7017,-1.7013,-1.7031,-1.7029,-1.6987,-1.6987,-1.6988,-1.6988,0,0,0,0,0,0,0,-1.7161,-1.7159,-1.7144,-1.7123,-1.7117,-1.7098,-1.7093,-1.7102,-1.7055,-1.7063,-1.7057,-1.7053,-1.7016,-1.7013,-1.7011,-1.7028,-1.6987,-1.6988,-1.6988,-1.6988,-1.7085,-1.7087,0,0,0,0,0,0,-1.7169,-1.7161,-1.7145,-1.7143,-1.7132,-1.71,-1.7093,-1.7093,-1.7055,-1.7047,-1.7055,-1.7049,-1.7014,-1.7011,-1.7009,-1.7063,-1.6988,-1.6988,-1.6988,-1.7082,-1.7085,-1.7088,0,0,0,0,0,0,-1.717,-1.7169,-1.7147,-1.715,-1.7146,-1.7102,-1.7102,-1.7094,-1.709,-1.7049,-1.704,-1.706,-1.7012,-1.7009,-1.7028,-1.706,-1.6988,-1.6988,-1.7079,-1.7083,-1.7087,-1.7169,0,0,0,0,0,0,-1.7171,-1.7169,-1.7186,-1.7151,-1.7146,-1.7167,-1.7104,-1.7094,-1.7091,-1.7083,-1.7052,-1.7044,-1.701,-1.7028,-1.7029,-1.7059,-1.6988,-1.7076,-1.7081,-1.7085,-1.7164,-1.7175,-1.7185,0,0,0,0,0,-1.7172,-1.7211,-1.7187,-1.7186,-1.7166,-1.7169,-1.7166,-1.7125,-1.7094,-1.7111,-1.7085,-1.7045,-1.7057,-1.7031,-1.7031,-1.7062,-1.7074,-1.708,-1.7085,-1.7159,-1.7173,-1.7185,0,0,0,0,0,0,-1.725,-1.7205,-1.7179,-1.7207,-1.7193,-1.7155,-1.7175,-1.7142,-1.7135,-1.7128,-1.7078,-1.7072,-1.7098,-1.7082,-1.7054,-1.7106,-1.7059,-1.7065,-1.7116,-1.7129,-1.714,-1.7143,-1.6989,0,0,0,0,0,-1.7271,-1.7276,-1.7237,-1.7266,-1.726,-1.7219,-1.7219,-1.7189,-1.7172,-1.7165,-1.714,-1.7125,-1.7125,-1.7126,-1.7124,-1.7161,-1.7154,-1.7183,-1.7194,-1.7203,-1.7208,-1.7228,-1.7241,-1.7106,-1.7106,-1.7106,0,0,-1.7313,-1.729,-1.7296,-1.7281,-1.7266,-1.7274,-1.7214,-1.7224,-1.7229,-1.7166,-1.7183,-1.7165,-1.7145,-1.7174,-1.7185,-1.7161,-1.7244,-1.721,-1.7217,-1.7217,-1.7235,-1.7248,-1.726,-1.7109,-1.7109,-1.7108,0,0,-1.7395,-1.7377,-1.74,-1.7387,-1.7365,-1.7338,-1.7344,-1.7312,-1.7297,-1.7314,-1.7267,-1.7273,-1.7274,-1.7262,-1.7256,-1.7337,-1.7301,-1.7337,-1.7394,-1.7415,-1.7425,-1.7434,-1.7464,-1.7475,-1.7343,-1.7343,-1.7343,0,-1.745,-1.7459,-1.7416,-1.743,-1.7425,-1.7369,-1.7393,-1.7382,-1.7361,-1.736,-1.7333,-1.7334,-1.7317,-1.7343,-1.7363,-1.736,-1.7366,-1.734,-1.7427,-1.7436,-1.7444,-1.7472,-1.7483,-1.7348,-1.7347,-1.7347,-1.7346,0,-1.7529,-1.7536,-1.7558,-1.754,-1.7537,-1.7556,-1.7517,-1.752,-1.7492,-1.7468,-1.7487,-1.7464,-1.7457,-1.7461,-1.7433,-1.7484,-1.747,-1.7436,-1.7388,-1.7462,-1.7487,-1.7498,-1.7354,-1.7353,-1.7351,-1.735,0,0,-1.7657,-1.7616,-1.7625,-1.7616,-1.759,-1.7595,-1.7612,-1.7605,-1.761,-1.7598,-1.7611,-1.7615,-1.7584,-1.7578,-1.7548,-1.7566,-1.7633,-1.753,-1.7529,-1.755,-1.7689,-1.7715,-1.7728,-1.7609,-1.7611,-1.7612,-1.7691,0,-1.7732,-1.7758,-1.7721,-1.7756,-1.7763,-1.7712,-1.7727,-1.7712,-1.7691,-1.7695,-1.7672,-1.7675,-1.7634,-1.763,-1.7645,-1.7621,-1.766,-1.7615,-1.7622,-1.7623,-1.7628,-1.7741,-1.7768,-1.7843,-1.7701,-1.7702,-1.7704,0,-1.7824,-1.7817,-1.7853,-1.7826,-1.7827,-1.7841,-1.7834,-1.7837,-1.7821,-1.7805,-1.7799,-1.7764,-1.778,-1.7735,-1.7756,-1.7727,-1.7728,-1.7717,-1.7719,-1.7718,-1.7667,-1.7743,-1.7866,-1.7878,-1.7718,-1.7717,-1.7716,0,-1.7914,-1.7914,-1.7936,-1.7931,-1.7899,-1.7911,-1.7898,-1.788,-1.7879,-1.7873,-1.7872,-1.7868,-1.7866,-1.7864,-1.7829,-1.7799,-1.7856,-1.7807,-1.7843,-1.7845,-1.7857,-1.7857,-1.7982,-1.7858,-1.7858,-1.7858,-1.7857,0,-1.8003,-1.8027,-1.7977,-1.799,-1.8016,-1.7974,-1.8001,-1.7984,-1.7968,-1.7978,-1.7933,-1.7944,-1.7897,-1.7903,-1.7877,-1.79,-1.7899,-1.7887,-1.7879,-1.7891,-1.7892,-1.789,-1.7884,-1.7861,-1.786,-1.7859,-1.7859,0,-1.8107,-1.8075,-1.8095,-1.8065,-1.8058,-1.8079,-1.8053,-1.8064,-1.8041,-1.8055,-1.8055,-1.8019,-1.8024,-1.799,-1.7988,-1.797,-1.8006,-1.799,-1.8012,-1.8007,-1.8045,-1.8042,-1.8174,-1.8189,-1.8055,-1.8057,-1.8058,0,-1.8166,-1.8183,-1.8155,-1.8159,-1.8149,-1.8155,-1.8155,-1.8115,-1.8116,-1.81,-1.8115,-1.8116,-1.8115,-1.8125,-1.8099,-1.8098,-1.8081,-1.8128,-1.8081,-1.8092,-1.8083,-1.8082,-1.8084,-1.8137,-1.8139,-1.814,-1.8141,0,-1.8274,-1.8257,-1.8258,-1.8254,-1.8255,-1.825,-1.8242,-1.8248,-1.8205,-1.8209,-1.8214,-1.8213,-1.8212,-1.8214,-1.8209,-1.8196,-1.8162,-1.8157,-1.8165,-1.8177,-1.8189,-1.8184,-1.8039,-1.8153,-1.8152,-1.8151,-1.8151,-1.815,-1.8357,-1.8371,-1.8354,-1.8357,-1.8347,-1.8342,-1.8352,-1.8331,-1.8334,-1.833,-1.8307,-1.8316,-1.8301,-1.829,-1.8282,-1.8289,-1.8267,-1.8279,-1.8282,-1.8286,-1.8293,-1.8188,-1.8288,-1.8287,-1.8287,-1.8287,-1.8286,0,-1.8463,-1.845,-1.8454,-1.8444,-1.8448,-1.8416,-1.8406,-1.8411,-1.842,-1.8409,-1.8409,-1.8415,-1.8418,-1.8393,-1.8393,-1.8404,-1.8389,-1.8405,-1.8404,-1.8402,-1.8312,-1.8305,-1.8418,-1.8418,-1.8418,-1.8418,-1.8418,-1.8418,-1.8519,-1.8541,-1.8523,-1.8541,-1.8527,-1.8536,-1.8534,-1.8529,-1.852,-1.8529,-1.8531,-1.8515,-1.8499,-1.8498,-1.8499,-1.8492,-1.8494,-1.8517,-1.8504,-1.8421,-1.8408,-1.8396,-1.8389,-1.8517,-1.8518,-1.8593,-1.8594,-1.8595]},{"header":{"parameterUnit":"m.s-1","parameterCategory":1,"la1":30.2991,"la2":30.254,"lo1":-89.0895,"lo2":-89.0444,"dy":0.0017,"dx":0.0017,"nx":28,"ny":28,"refTime":"2024-06-10T21:00:00:Z","depth":0,"parameterNumber":3,"parameterNumberName":"V-component_of_WINDS"},"data":[0,0,0,0,0,0,0,0,0,0,0,0,0,0,0,0,0,0,0,0,0,0,0,0,0,0,0,0,0,0,0,0,0,0,0,0,0,0,0,0,0,0,0,0,0,0,0,0,0,0,0,0,0,0,0,0,0,0,2.4835,2.4835,0,2.4849,2.4849,2.4849,2.4851,2.4851,2.4851,2.4851,2.4863,2.4864,2.4864,0,0,0,0,0,0,0,0,0,0,0,0,0,2.4809,2.481,2.4835,2.4835,2.4835,2.4849,2.4849,2.4849,2.4851,2.4851,2.4851,2.4851,2.4863,2.4864,2.4864,0,0,0,0,0,0,0,0,0,0,0,0,0,2.4821,2.481,2.4835,2.4838,2.4838,2.4849,2.4849,2.4849,2.4851,2.4851,2.4851,2.4851,2.4863,2.4864,2.4864,2.4872,0,0,2.4866,2.4867,0,0,0,0,0,0,0,0,2.4821,2.4822,2.4837,2.4838,2.4838,2.4848,2.4844,2.4857,2.4851,2.4846,2.4851,2.485,2.4858,2.4859,2.4862,2.4873,2.4873,2.4866,2.4867,2.4867,2.4867,0,0,0,0,0,0,0,2.482,2.4822,2.484,2.4837,2.4838,2.4838,2.484,2.4847,2.4853,2.4847,2.4847,2.4848,2.4858,2.4862,2.4863,2.4873,2.4866,2.4867,2.4867,2.4868,2.4892,2.4892,0,0,0,0,0,0,2.4819,2.4821,2.484,2.4841,2.4829,2.4839,2.4841,2.4845,2.4853,2.4854,2.4849,2.4848,2.4861,2.4862,2.4863,2.4873,2.4867,2.4868,2.4868,2.4892,2.4892,2.4892,0,0,0,0,0,0,2.4818,2.482,2.4839,2.4831,2.4833,2.4839,2.4844,2.4845,2.4848,2.4855,2.4855,2.4851,2.486,2.4862,2.487,2.4874,2.4868,2.4869,2.4892,2.4892,2.4892,2.4893,0,0,0,0,0,0,2.4817,2.482,2.4823,2.4831,2.4834,2.4846,2.4845,2.4846,2.485,2.485,2.4857,2.4858,2.486,2.4869,2.4871,2.4874,2.4869,2.4891,2.4892,2.4892,2.4893,2.4894,2.4894,0,0,0,0,0,2.4816,2.4822,2.4823,2.4825,2.4838,2.4846,2.4848,2.4851,2.485,2.4853,2.4857,2.4857,2.4873,2.487,2.4872,2.4876,2.4891,2.4892,2.4892,2.4893,2.4893,2.4894,0,0,0,0,0,0,2.4813,2.4823,2.4824,2.4833,2.4839,2.4847,2.4851,2.4852,2.4858,2.4858,2.4861,2.4863,2.4871,2.4874,2.4871,2.4884,2.4882,2.4883,2.4882,2.4882,2.4883,2.4882,2.487,0,0,0,0,0,2.4814,2.4821,2.4829,2.4835,2.4838,2.4844,2.4848,2.485,2.4856,2.4859,2.4863,2.4869,2.4875,2.4879,2.4885,2.4894,2.4895,2.4897,2.4898,2.4898,2.4899,2.4904,2.4905,2.4894,2.4894,2.4894,0,0,2.4815,2.4821,2.4825,2.4835,2.484,2.4846,2.4846,2.4853,2.4858,2.486,2.4868,2.4872,2.4878,2.4887,2.4891,2.4889,2.4903,2.4899,2.49,2.49,2.4905,2.4906,2.4907,2.4895,2.4895,2.4894,0,0,2.482,2.4825,2.4831,2.4837,2.4845,2.4849,2.485,2.4858,2.4861,2.487,2.4872,2.4877,2.4888,2.4893,2.4897,2.4905,2.4906,2.4907,2.491,2.4915,2.4916,2.4917,2.492,2.4921,2.4908,2.4908,2.4908,0,2.4819,2.483,2.4834,2.4842,2.4846,2.485,2.4856,2.4861,2.487,2.4873,2.4872,2.4887,2.4891,2.4901,2.4903,2.4906,2.4908,2.4906,2.4916,2.4916,2.4917,2.492,2.4921,2.4908,2.4908,2.4908,2.4908,0,2.4829,2.4836,2.4841,2.4851,2.4856,2.4863,2.4869,2.4873,2.4876,2.488,2.4889,2.4895,2.4903,2.4905,2.4907,2.4916,2.4915,2.4915,2.4912,2.4918,2.4921,2.4922,2.4908,2.4908,2.4908,2.4908,0,0,2.4831,2.4845,2.4846,2.4851,2.4861,2.4866,2.4874,2.4882,2.4886,2.4893,2.4899,2.4909,2.4909,2.4914,2.4916,2.4921,2.4928,2.492,2.492,2.4921,2.4938,2.4938,2.4939,2.4928,2.4929,2.4929,2.4937,0,2.4837,2.4851,2.4856,2.4867,2.4874,2.4878,2.4884,2.4891,2.4895,2.4902,2.4907,2.4914,2.4913,2.4916,2.4921,2.4926,2.4931,2.4925,2.4934,2.4934,2.4932,2.494,2.494,2.4947,2.4938,2.4939,2.4939,0,2.4845,2.4853,2.4865,2.4875,2.4878,2.4884,2.4892,2.4899,2.4906,2.4909,2.4915,2.4918,2.4926,2.4924,2.4935,2.4931,2.4935,2.4938,2.4939,2.4939,2.4936,2.4941,2.495,2.4951,2.494,2.494,2.494,0,2.4846,2.4859,2.4868,2.4872,2.4884,2.4888,2.4893,2.4901,2.4906,2.4913,2.4917,2.4925,2.4929,2.4935,2.494,2.4938,2.4951,2.4949,2.4953,2.4953,2.4955,2.4955,2.4965,2.4959,2.4959,2.4959,2.4959,0,2.4851,2.4858,2.4869,2.4874,2.4883,2.4889,2.4897,2.4902,2.4909,2.4916,2.492,2.4926,2.4932,2.4939,2.4943,2.4952,2.4954,2.4956,2.4957,2.4956,2.4955,2.4958,2.4957,2.4959,2.4959,2.4959,2.4959,0,2.4853,2.486,2.487,2.4881,2.4884,2.489,2.4899,2.4904,2.491,2.4918,2.492,2.4928,2.4937,2.4943,2.4953,2.4956,2.4965,2.4966,2.4963,2.4963,2.4967,2.4966,2.4978,2.498,2.4973,2.4973,2.4973,0,2.4855,2.4861,2.4873,2.4878,2.4884,2.4892,2.4897,2.4904,2.491,2.492,2.4924,2.4933,2.4941,2.4954,2.496,2.4969,2.497,2.4973,2.4971,2.4969,2.4969,2.4969,2.497,2.4973,2.4973,2.4974,2.4974,0,2.486,2.4864,2.4872,2.4882,2.4888,2.4896,2.4904,2.4908,2.4916,2.4922,2.4931,2.4937,2.4949,2.4958,2.4967,2.4972,2.4974,2.4975,2.4976,2.4974,2.4972,2.4973,2.4963,2.4974,2.4974,2.4974,2.4974,2.4974,2.4862,2.4868,2.4878,2.4887,2.4894,2.4901,2.4907,2.4914,2.4922,2.4932,2.4936,2.4945,2.4954,2.4967,2.4972,2.4979,2.4979,2.4981,2.4981,2.4981,2.4981,2.4971,2.4981,2.4981,2.4981,2.4981,2.4981,0,2.4867,2.4874,2.4882,2.4894,2.4901,2.4904,2.4913,2.4919,2.4927,2.4935,2.4943,2.4954,2.4963,2.4971,2.498,2.4984,2.4986,2.4986,2.4986,2.4987,2.4981,2.4979,2.4985,2.4985,2.4985,2.4985,2.4985,2.4985,2.487,2.488,2.4885,2.4899,2.4905,2.4915,2.492,2.4927,2.4934,2.4946,2.4954,2.4959,2.4967,2.4977,2.4986,2.4988,2.4991,2.4991,2.4994,2.4988,2.4987,2.4987,2.4985,2.4992,2.4992,2.4999,2.4999,2.4999]}]]